Hourly Data Report for July 25, 2021

MUSKOKA
ONTARIO
Current Station Operator: NAVCAN

44°58'29.000" N
79°18'12.000" W
281.90 m
6115529
71532
YQA

Download Data

Hourly Data (July 2021)
Hourly Data Report for July 25, 2021
TIME
LST
Temp Definition
°C
Dew Point Definition
°C
Rel Hum Definition
%
Precip. Amount Definition
mm

Wind Dir Definition
10's deg

Wind Spd Definition
km/h
Visibility Definition
km
Stn Press Definition
kPa
Hmdx Definition


Wind Chill Definition


Weather Definition


00:00 19.5 18.9 96 0.0 28 15 16.1 97.34     LegendNANA
01:00 19.6 18.8 95 0.0 30 17 16.1 97.40     LegendNANA
02:00 19.3 18.5 95 0.0 29 8 16.1 97.43     LegendNANA
03:00 19.2 18.6 96 0.0 27 15 16.1 97.44     LegendNANA
04:00 19.0 18.2 95 0.0 29 8 16.1 97.46     LegendNANA
05:00 19.1 18.5 96 0.0 30 9 16.1 97.49     LegendNANA
06:00 19.2 18.4 95 0.0 26 9 16.1 97.54     LegendNANA
07:00 19.3 18.2 93 0.0 28 15 16.1 97.59     LegendNANA
08:00 20.1 18.5 90 0.0 30 11 16.1 97.64 26   LegendNANA
09:00 20.8 18.3 85 0.0 26 11 16.1 97.68 27   LegendNANA
10:00 21.8 17.8 78 0.0 30 11 12.9 97.70 28   LegendNANA
11:00 22.9 18.1 74 0.0 30 11 12.9 97.72 29   LegendNANA
12:00 25.1 18.2 65 0.0 25 11 9.7 97.70 31   Haze
13:00 26.1 18.6 63 0.0 30 15 9.7 97.68 33   Haze
14:00 26.9 16.2 51 0.0 24 11 9.7 97.64 32   Haze
15:00 27.7 15.9 48 0.0 27 15 16.1 97.61 32   LegendNANA
16:00 26.5 16.3 53 0.0 28 17 16.1 97.63 31   LegendNANA
17:00 25.0 16.6 59 0.0 28 21 16.1 97.66 30   LegendNANA
18:00 23.1 16.5 66 0.0 29 13 16.1 97.70 28   LegendNANA
19:00 22.0 17.2 74 0.0 25 11 16.1 97.72 27   LegendNANA
20:00 20.3 17.2 82 0.0 25 11 16.1 97.74 26   LegendNANA
21:00 19.6 17.1 85 0.0 27 5 16.1 97.81     LegendNANA
22:00 17.2 16.5 96 0.0 14 4 12.9 97.82     LegendNANA
23:00 16.1 16.0 99 0.0 19 4 4.8 97.84     Fog

Notes on Data Quality.

Legend

  • E = Estimated
  • M = Missing
  • NA = Not Available*
  • [empty] = Indicates an unobserved value
Date modified: